User: anonymous   Login
Location: Unspecified
(0.0000°N, 0.0000°E)
Time: 18:56:44
(UTC+00:00)
Language:

PERSEUS M2 - Orbit

View from above orbital plane
View from above orbital plane
View from above satellite
View from above satellite

Ground track
Ground track

The orbit data is extracted from the following two-line orbital elements,

1 40037U 14033AD  17084.84384204 +.00000165 +00000-0 +25085-4 0  9994
2 40037 097.9175 354.0139 0013557 214.1051 145.9294 14.86189235149436
Epoch (UTC): 25 March 2017 20:15:07
Eccentricity: 0.0013557
inclination: 97.9175°
perigee height: 600 km
apogee height: 619 km
right ascension of ascending node: 354.0139°
argument of perigee: 214.1051°
revolutions per day: 14.86189235
mean anomaly at epoch: 145.9294°
orbit number at epoch: 14943

The dashed part of the orbit path shows where the satellite is in the earth's shadow,  

DLR